カタログに戻る

STARLINK-11615

運用中通信VLEO
NORAD 63274·PAYLOAD·🇺🇸 United States

打ち上げ Mar 15, 2025 から Cape Canaveral Space Force Station

Loading…

次のパス (今後24時間)

TLE

最新Source: CelesTrak SupGP

元期: Sep 15, 2026, 02:34 UTC

1 63274C 25053K   26258.10743056 -.00100510  00000+0 -78038-3 0  2581
2 63274  43.0012  50.5924 0001857 268.0916 276.4035 15.70897026    15

AllMySatでSTARLINK-11615をリアルタイム追跡

Download on the App Store